Skip Navigation Linkswww.weather.gov 
NOAA logo - Click to go to the NOAA homepage National Weather Service Forecast Office   NWS logo - Click to go to the NWS homepage    
Los Angeles, California
navigation bar decoration      
spacer
Printer Friendly  |   Go Back  |  Version: Current   1   2   3   4   5   6   7   8   9   10   |  Font:  A A A  |  
This version is NOT current and may no longer be valid!

HOURLY WEATHER ROUNDUP
 
 ASUS46 KSTO 301209
RWRCA

NORTHERN AND CENTRAL CA REGIONAL WEATHER ROUNDUP
NATIONAL WEATHER SERVICE SACRAMENTO CA
500 AM PDT MON MAR 30 2015

NOTE: FAIR INDICATES FEW OR NO CLOUDS BELOW 12,000 FEET WITH NO
SIGNIFICANT WEATHER AND/OR OBSTRUCTIONS TO VISIBILITY.

CAZ001-003-301300-
NORTHWEST AREA

CITY SKY/WX TMP DP RH WIND PRES REMARKS
CRESCENT CITY CLOUDY 51 50 96 N3 30.15S FOG
ARCATA NOT AVBL
SHELTER COVE NOT AVBL
UKIAH PTCLDY 48 44 86 E5 30.04F
$$

CAZ006-505>513-301300-
BAY AREA

CITY SKY/WX TMP DP RH WIND PRES REMARKS
SANTA ROSA PTCLDY 48 46 93 CALM 30.00S
SAN RAFAEL N/A 52 MM MM MISG
NAPA CLEAR 48 47 96 CALM 30.01S
CONCORD CLEAR 53 42 66 S3 30.00F
OAKLAND CITY N/A 56 MM MM MISG
OAKLAND PTCLDY 49 44 83 CALM 30.02F
SAN FRAN CITY N/A 53 MM 81 MISG
SAN FRAN ARPT PTCLDY 53 51 93 W10 30.02F
LIVERMORE CLEAR 51 43 74 CALM 30.01F
HAYWARD CLEAR 53 43 68 CALM 30.01F
REDWOOD CITY N/A MM MM MM MISG
MOFFETT ARPT CLEAR 53 47 79 CALM 30.02F
SAN JOSE ARPT CLEAR 53 45 74 CALM 30.02S
$$
CAZ034-037-514>518-301300-
CENTRAL COAST

CITY SKY/WX TMP DP RH WIND PRES REMARKS
WATSONVILLE CLEAR 49 45 86 NW3 30.03F
SALINAS CLEAR 48 43 82 CALM 30.02F
MONTEREY FOG 48 46 93 CALM 30.02F VSB 3/4
PT PIEDRAS BLS NOT AVBL
SAN LUIS OBISP CLEAR 45 41 86 E3 29.99F
SANTA MARIA CLEAR 48 45 89 CALM 30.00F
$$
CAZ015-016-301300-
NORTHERN SACRAMENTO VALLEY

CITY SKY/WX TMP DP RH WIND PRES REMARKS
REDDING PTCLDY 54 45 71 N5 30.00F
RED BLUFF CLEAR 54 43 66 N7 30.00F
OROVILLE CLEAR 55 47 74 SW3 30.00S
$$
CAZ016>018-301300-
SOUTHERN SACRAMENTO VALLEY

CITY SKY/WX TMP DP RH WIND PRES REMARKS
AUBURN CLEAR 59 45 58 E5 30.03S
LINCOLN FAIR 46 43 87 CALM 29.98S
MARYSVILLE CLEAR 51 44 77 CALM 29.99F
SAC INTL ARPT CLEAR 50 44 80 NW5 29.99R
MATHER AIRPORT CLEAR 48 45 87 SE5 29.99
DOWNTOWN SAC N/A 56 MM MM MISG
SAC EXEC ARPT CLEAR 51 46 83 CALM 29.99S
VACAVILLE CLEAR 49 43 80 CALM 29.99F
TRAVIS AFB NOT AVBL
$$
CAZ019>021-301300-
SAN JOAQUIN VALLEY

CITY SKY/WX TMP DP RH WIND PRES REMARKS
STOCKTON CLEAR 50 42 74 CALM 29.99S
MODESTO CLEAR 52 47 83 CALM 29.99S
MERCED CLEAR 50 44 80 CALM 29.99S
LEMOORE CLEAR 50 28 42 NW5 30.01S
FRESNO CLEAR 59 44 57 NE3 30.00S
HANFORD CLEAR 56 44 64 NW5 30.00F
PORTERVILLE CLEAR 52 41 66 CALM 30.01S
BAKERSFIELD CLEAR 60 38 43 CALM 30.00S
$$
CAZ011-012-071-301300-
NORTHERN MOUNTAINS

CITY SKY/WX TMP DP RH WIND PRES REMARKS
YREKA MOCLDY 42 36 79 E3 30.14F
MOUNT SHASTA MOCLDY 43 34 70 NE5 30.13F
ALTURAS CLEAR 30 25 81 CALM 30.17F
$$
CAZ011-012-071-301300-
SIERRA NEVADA MTNS

CITY SKY/WX TMP DP RH WIND PRES REMARKS
BLUE CANYON CLEAR 57 29 34 NE5 30.18F
TRUCKEE CLEAR 32 30 93 CALM 30.24F
TAHOE VLY ARPT CLEAR 33 27 78 S5 30.23F WCI 29
MAMMOTH LAKES FAIR 34 21 60 N3 30.28S
$$



Webmaster
US Dept of Commerce
National Oceanic and Atmospheric Administration
National Weather Service
Los Angeles/Oxnard Weather Forecast Office
520 North Elevar Street
Oxnard, CA 93030

Tel: (805) 988-6610

Disclaimer
Information Quality
Credits
Glossary
Organization
Privacy Policy
Freedom of Information Act
About Us
Career Opportunities